Location: Zagreb
(45.8000°N, 16.0000°E)
Time: 05:07:42
(UTC+02:00)

Vanguard 2 Rocket - Pass Details

Date: 10 August 2022
Orbit: 553 x 3323 km, 32.9° (Epoch: 30 September)

Event Time Altitude Azimuth Distance (km) Brightness Sun altitude
Rises 20:31:42 0° 274° (W) 7,280 13.0 -3.9°
Reaches altitude 10° 20:37:25 10° 268° (W) 6,110 12.2 -4.8°
Maximum altitude 20:52:52 35° 212° (SSW) 3,532 9.9 -7.1°
Drops below altitude 10° 21:03:25 10° 151° (SSE) 4,177 9.7 -8.7°
Enters shadow 21:04:42 - 147° (SSE) 4,425 9.8 -8.9°
